owner,sensor,date,latitude,longitude,vertical_datum,sea_water_practical_salinity,qcFlag 
TABS,ioos:station:wmo:42051:1,2016-07-01T00:00:00Z,29.6350,-93.6417,2.0,18.7664,11111222 
TABS,ioos:station:wmo:42051:1,2016-07-01T00:30:00Z,29.6350,-93.6417,2.0,18.9427,11111222 
TABS,ioos:station:wmo:42051:1,2016-07-01T01:00:00Z,29.6350,-93.6417,2.0,19.2808,11111222 
TABS,ioos:station:wmo:42051:1,2016-07-01T01:30:00Z,29.6350,-93.6417,2.0,19.386,11111222 
TABS,ioos:station:wmo:42051:1,2016-07-01T02:00:00Z,29.6350,-93.6417,2.0,19.5837,11111222 
TABS,ioos:station:wmo:42051:1,2016-07-01T02:30:00Z,29.6350,-93.6417,2.0,19.6554,11111222 
TABS,ioos:station:wmo:42051:1,2016-07-01T03:00:00Z,29.6350,-93.6417,2.0,19.7129,11111222 
TABS,ioos:station:wmo:42051:1,2016-07-01T03:30:00Z,29.6350,-93.6417,2.0,19.7378,11111222 
TABS,ioos:station:wmo:42051:1,2016-07-01T04:00:00Z,29.6350,-93.6417,2.0,19.7635,11111222 
TABS,ioos:station:wmo:42051:1,2016-07-01T04:30:00Z,29.6350,-93.6417,2.0,19.7921,11111222 
TABS,ioos:station:wmo:42051:1,2016-07-01T05:00:00Z,29.6350,-93.6417,2.0,19.8231,11111222 
TABS,ioos:station:wmo:42051:1,2016-07-01T05:30:00Z,29.6350,-93.6417,2.0,19.863,11111222 
TABS,ioos:station:wmo:42051:1,2016-07-01T06:00:00Z,29.6350,-93.6417,2.0,19.8942,11111222 
TABS,ioos:station:wmo:42051:1,2016-07-01T06:30:00Z,29.6350,-93.6417,2.0,19.9448,11111222 
TABS,ioos:station:wmo:42051:1,2016-07-01T07:00:00Z,29.6350,-93.6417,2.0,20.0135,11111222 
TABS,ioos:station:wmo:42051:1,2016-07-01T07:30:00Z,29.6350,-93.6417,2.0,20.0658,11111222 
TABS,ioos:station:wmo:42051:1,2016-07-01T08:00:00Z,29.6350,-93.6417,2.0,20.0924,11111222 
TABS,ioos:station:wmo:42051:1,2016-07-01T08:30:00Z,29.6350,-93.6417,2.0,20.1091,11111222 
TABS,ioos:station:wmo:42051:1,2016-07-01T09:00:00Z,29.6350,-93.6417,2.0,20.1315,11111222 
TABS,ioos:station:wmo:42051:1,2016-07-01T09:30:00Z,29.6350,-93.6417,2.0,20.147,11111222 
TABS,ioos:station:wmo:42051:1,2016-07-01T10:00:00Z,29.6350,-93.6417,2.0,20.1503,11111222 
TABS,ioos:station:wmo:42051:1,2016-07-01T10:30:00Z,29.6350,-93.6417,2.0,20.1385,11111222 
TABS,ioos:station:wmo:42051:1,2016-07-01T11:00:00Z,29.6350,-93.6417,2.0,20.1337,11111222 
TABS,ioos:station:wmo:42051:1,2016-07-01T11:30:00Z,29.6350,-93.6417,2.0,20.1323,11111222 
TABS,ioos:station:wmo:42051:1,2016-07-01T12:00:00Z,29.6350,-93.6417,2.0,20.1443,11111222 
TABS,ioos:station:wmo:42051:1,2016-07-01T12:30:00Z,29.6350,-93.6417,2.0,20.1492,11111222 
TABS,ioos:station:wmo:42051:1,2016-07-01T13:00:00Z,29.6350,-93.6417,2.0,20.1732,11111222 
TABS,ioos:station:wmo:42051:1,2016-07-01T13:30:00Z,29.6350,-93.6417,2.0,20.1859,11111222 
TABS,ioos:station:wmo:42051:1,2016-07-01T14:00:00Z,29.6350,-93.6417,2.0,20.2032,11111222 
TABS,ioos:station:wmo:42051:1,2016-07-01T14:30:00Z,29.6350,-93.6417,2.0,20.1948,11111222 
TABS,ioos:station:wmo:42051:1,2016-07-01T15:00:00Z,29.6350,-93.6417,2.0,20.1969,11111222 
TABS,ioos:station:wmo:42051:1,2016-07-01T15:30:00Z,29.6350,-93.6417,2.0,20.2042,11111222 
TABS,ioos:station:wmo:42051:1,2016-07-01T16:00:00Z,29.6350,-93.6417,2.0,20.1912,11111222 
TABS,ioos:station:wmo:42051:1,2016-07-01T16:30:00Z,29.6350,-93.6417,2.0,20.1801,11111222 
TABS,ioos:station:wmo:42051:1,2016-07-01T17:00:00Z,29.6350,-93.6417,2.0,20.1413,11111222 
TABS,ioos:station:wmo:42051:1,2016-07-01T17:30:00Z,29.6350,-93.6417,2.0,20.0952,11111222 
TABS,ioos:station:wmo:42051:1,2016-07-01T18:00:00Z,29.6350,-93.6417,2.0,20.0241,11111222 
TABS,ioos:station:wmo:42051:1,2016-07-01T18:30:00Z,29.6350,-93.6417,2.0,19.9623,11111222 
TABS,ioos:station:wmo:42051:1,2016-07-01T19:00:00Z,29.6350,-93.6417,2.0,19.8836,11111222 
TABS,ioos:station:wmo:42051:1,2016-07-01T19:30:00Z,29.6350,-93.6417,2.0,19.7795,11111222 
TABS,ioos:station:wmo:42051:1,2016-07-01T20:00:00Z,29.6350,-93.6417,2.0,19.7073,11111222 
TABS,ioos:station:wmo:42051:1,2016-07-01T20:30:00Z,29.6350,-93.6417,2.0,19.7026,11111222 
TABS,ioos:station:wmo:42051:1,2016-07-01T21:00:00Z,29.6350,-93.6417,2.0,19.6346,11111222 
TABS,ioos:station:wmo:42051:1,2016-07-01T21:30:00Z,29.6350,-93.6417,2.0,19.6405,11111222 
TABS,ioos:station:wmo:42051:1,2016-07-01T22:00:00Z,29.6350,-93.6417,2.0,19.6841,11111222 
TABS,ioos:station:wmo:42051:1,2016-07-01T22:30:00Z,29.6350,-93.6417,2.0,19.6337,11111222 
TABS,ioos:station:wmo:42051:1,2016-07-01T23:00:00Z,29.6350,-93.6417,2.0,19.6701,11111222 
TABS,ioos:station:wmo:42051:1,2016-07-01T23:30:00Z,29.6350,-93.6417,2.0,19.6874,11111222 
TABS,ioos:station:wmo:42051:1,2016-07-02T00:00:00Z,29.6350,-93.6417,2.0,19.6628,11111222 
TABS,ioos:station:wmo:42051:1,2016-07-02T00:30:00Z,29.6350,-93.6417,2.0,19.629,11111222 
TABS,ioos:station:wmo:42051:1,2016-07-02T01:00:00Z,29.6350,-93.6417,2.0,19.5514,11111222 
TABS,ioos:station:wmo:42051:1,2016-07-02T01:30:00Z,29.6350,-93.6417,2.0,19.447,11111222 
TABS,ioos:station:wmo:42051:1,2016-07-02T02:00:00Z,29.6350,-93.6417,2.0,19.424,11111222 
TABS,ioos:station:wmo:42051:1,2016-07-02T02:30:00Z,29.6350,-93.6417,2.0,19.4906,11111222 
TABS,ioos:station:wmo:42051:1,2016-07-02T03:00:00Z,29.6350,-93.6417,2.0,19.5881,11111222 
TABS,ioos:station:wmo:42051:1,2016-07-02T03:30:00Z,29.6350,-93.6417,2.0,19.6652,11111222 
TABS,ioos:station:wmo:42051:1,2016-07-02T04:00:00Z,29.6350,-93.6417,2.0,19.7084,11111222 
TABS,ioos:station:wmo:42051:1,2016-07-02T04:30:00Z,29.6350,-93.6417,2.0,19.7472,11111222 
TABS,ioos:station:wmo:42051:1,2016-07-02T05:00:00Z,29.6350,-93.6417,2.0,19.7895,11111222 
TABS,ioos:station:wmo:42051:1,2016-07-02T05:30:00Z,29.6350,-93.6417,2.0,19.8583,11111222 
TABS,ioos:station:wmo:42051:1,2016-07-02T06:00:00Z,29.6350,-93.6417,2.0,19.9519,11111222 
TABS,ioos:station:wmo:42051:1,2016-07-02T06:30:00Z,29.6350,-93.6417,2.0,19.9986,11111222 
TABS,ioos:station:wmo:42051:1,2016-07-02T07:00:00Z,29.6350,-93.6417,2.0,20.0053,11111222 
TABS,ioos:station:wmo:42051:1,2016-07-02T07:30:00Z,29.6350,-93.6417,2.0,19.9607,11111222 
TABS,ioos:station:wmo:42051:1,2016-07-02T08:00:00Z,29.6350,-93.6417,2.0,20.0504,11111222 
TABS,ioos:station:wmo:42051:1,2016-07-02T08:30:00Z,29.6350,-93.6417,2.0,20.1551,11111222 
TABS,ioos:station:wmo:42051:1,2016-07-02T09:00:00Z,29.6350,-93.6417,2.0,20.229,11111222 
TABS,ioos:station:wmo:42051:1,2016-07-02T09:30:00Z,29.6350,-93.6417,2.0,20.2939,11111222 
TABS,ioos:station:wmo:42051:1,2016-07-02T10:00:00Z,29.6350,-93.6417,2.0,20.347,11111222 
TABS,ioos:station:wmo:42051:1,2016-07-02T10:30:00Z,29.6350,-93.6417,2.0,20.3382,11111222 
TABS,ioos:station:wmo:42051:1,2016-07-02T11:00:00Z,29.6350,-93.6417,2.0,20.3479,11111222 
TABS,ioos:station:wmo:42051:1,2016-07-02T11:30:00Z,29.6350,-93.6417,2.0,20.4455,11111222 
TABS,ioos:station:wmo:42051:1,2016-07-02T12:00:00Z,29.6350,-93.6417,2.0,20.4972,11111222 
TABS,ioos:station:wmo:42051:1,2016-07-02T12:30:00Z,29.6350,-93.6417,2.0,20.5881,11111222 
TABS,ioos:station:wmo:42051:1,2016-07-02T13:00:00Z,29.6350,-93.6417,2.0,20.5146,11111222 
TABS,ioos:station:wmo:42051:1,2016-07-02T13:30:00Z,29.6350,-93.6417,2.0,20.5133,11111222 
TABS,ioos:station:wmo:42051:1,2016-07-02T14:00:00Z,29.6350,-93.6417,2.0,20.5456,11111222 
TABS,ioos:station:wmo:42051:1,2016-07-02T14:30:00Z,29.6350,-93.6417,2.0,20.5878,11111222 
TABS,ioos:station:wmo:42051:1,2016-07-02T15:00:00Z,29.6350,-93.6417,2.0,20.5876,11111222 
TABS,ioos:station:wmo:42051:1,2016-07-02T15:30:00Z,29.6350,-93.6417,2.0,20.6031,11111222 
TABS,ioos:station:wmo:42051:1,2016-07-02T16:00:00Z,29.6350,-93.6417,2.0,20.6219,11111222 
TABS,ioos:station:wmo:42051:1,2016-07-02T16:30:00Z,29.6350,-93.6417,2.0,20.7052,11111222 
TABS,ioos:station:wmo:42051:1,2016-07-02T17:00:00Z,29.6350,-93.6417,2.0,20.8623,11111222 
TABS,ioos:station:wmo:42051:1,2016-07-02T17:30:00Z,29.6350,-93.6417,2.0,20.8678,11111222 
TABS,ioos:station:wmo:42051:1,2016-07-02T18:00:00Z,29.6350,-93.6417,2.0,20.8883,11111222 
TABS,ioos:station:wmo:42051:1,2016-07-02T18:30:00Z,29.6350,-93.6417,2.0,20.876,11111222 
TABS,ioos:station:wmo:42051:1,2016-07-02T19:00:00Z,29.6350,-93.6417,2.0,20.8315,11111222 
TABS,ioos:station:wmo:42051:1,2016-07-02T19:30:00Z,29.6350,-93.6417,2.0,20.8186,11111222 
TABS,ioos:station:wmo:42051:1,2016-07-02T20:00:00Z,29.6350,-93.6417,2.0,20.801,11111222 
TABS,ioos:station:wmo:42051:1,2016-07-02T20:30:00Z,29.6350,-93.6417,2.0,20.7719,11111222 
TABS,ioos:station:wmo:42051:1,2016-07-02T21:00:00Z,29.6350,-93.6417,2.0,20.7883,11111222 
TABS,ioos:station:wmo:42051:1,2016-07-02T21:30:00Z,29.6350,-93.6417,2.0,20.7383,11111222 
TABS,ioos:station:wmo:42051:1,2016-07-02T22:00:00Z,29.6350,-93.6417,2.0,20.7186,11111222 
TABS,ioos:station:wmo:42051:1,2016-07-02T22:30:00Z,29.6350,-93.6417,2.0,20.6643,11111222 
TABS,ioos:station:wmo:42051:1,2016-07-02T23:00:00Z,29.6350,-93.6417,2.0,20.7099,11111222 
TABS,ioos:station:wmo:42051:1,2016-07-02T23:30:00Z,29.6350,-93.6417,2.0,20.724,11111222 
TABS,ioos:station:wmo:42051:1,2016-07-03T00:00:00Z,29.6350,-93.6417,2.0,20.7495,11111222 
TABS,ioos:station:wmo:42051:1,2016-07-03T00:30:00Z,29.6350,-93.6417,2.0,20.8735,11111222 
TABS,ioos:station:wmo:42051:1,2016-07-03T01:00:00Z,29.6350,-93.6417,2.0,20.9536,11111222 
TABS,ioos:station:wmo:42051:1,2016-07-03T01:30:00Z,29.6350,-93.6417,2.0,20.9755,11111222 
TABS,ioos:station:wmo:42051:1,2016-07-03T02:00:00Z,29.6350,-93.6417,2.0,20.8875,11111222 
TABS,ioos:station:wmo:42051:1,2016-07-03T02:30:00Z,29.6350,-93.6417,2.0,20.8417,11111222 
TABS,ioos:station:wmo:42051:1,2016-07-03T03:00:00Z,29.6350,-93.6417,2.0,20.781,11111222 
TABS,ioos:station:wmo:42051:1,2016-07-03T03:30:00Z,29.6350,-93.6417,2.0,20.7612,11111222 
TABS,ioos:station:wmo:42051:1,2016-07-03T04:00:00Z,29.6350,-93.6417,2.0,20.7314,11111222 
TABS,ioos:station:wmo:42051:1,2016-07-03T04:30:00Z,29.6350,-93.6417,2.0,20.7301,11111222 
TABS,ioos:station:wmo:42051:1,2016-07-03T05:00:00Z,29.6350,-93.6417,2.0,20.7654,11111222 
TABS,ioos:station:wmo:42051:1,2016-07-03T05:30:00Z,29.6350,-93.6417,2.0,20.8166,11111222 
TABS,ioos:station:wmo:42051:1,2016-07-03T06:00:00Z,29.6350,-93.6417,2.0,20.8627,11111222 
TABS,ioos:station:wmo:42051:1,2016-07-03T06:30:00Z,29.6350,-93.6417,2.0,20.905,11111222 
TABS,ioos:station:wmo:42051:1,2016-07-03T07:00:00Z,29.6350,-93.6417,2.0,20.9075,11111222 
TABS,ioos:station:wmo:42051:1,2016-07-03T07:30:00Z,29.6350,-93.6417,2.0,20.9941,11111222 
TABS,ioos:station:wmo:42051:1,2016-07-03T08:00:00Z,29.6350,-93.6417,2.0,20.9262,11111222 
TABS,ioos:station:wmo:42051:1,2016-07-03T08:30:00Z,29.6350,-93.6417,2.0,20.3611,11111222 
TABS,ioos:station:wmo:42051:1,2016-07-03T09:00:00Z,29.6350,-93.6417,2.0,20.1498,11111222 
TABS,ioos:station:wmo:42051:1,2016-07-03T09:30:00Z,29.6350,-93.6417,2.0,19.8333,11111222 
TABS,ioos:station:wmo:42051:1,2016-07-03T10:00:00Z,29.6350,-93.6417,2.0,19.8234,11111222 
TABS,ioos:station:wmo:42051:1,2016-07-03T10:30:00Z,29.6350,-93.6417,2.0,19.7931,11111222 
TABS,ioos:station:wmo:42051:1,2016-07-03T11:00:00Z,29.6350,-93.6417,2.0,19.9377,11111222 
TABS,ioos:station:wmo:42051:1,2016-07-03T11:30:00Z,29.6350,-93.6417,2.0,20.0366,11111222 
TABS,ioos:station:wmo:42051:1,2016-07-03T12:00:00Z,29.6350,-93.6417,2.0,19.9873,11111222 
TABS,ioos:station:wmo:42051:1,2016-07-03T12:30:00Z,29.6350,-93.6417,2.0,20.0576,11111222 
TABS,ioos:station:wmo:42051:1,2016-07-03T13:00:00Z,29.6350,-93.6417,2.0,19.8661,11111222 
TABS,ioos:station:wmo:42051:1,2016-07-03T13:30:00Z,29.6350,-93.6417,2.0,19.6567,11111222 
TABS,ioos:station:wmo:42051:1,2016-07-03T14:00:00Z,29.6350,-93.6417,2.0,19.7508,11111222 
TABS,ioos:station:wmo:42051:1,2016-07-03T14:30:00Z,29.6350,-93.6417,2.0,19.7544,11111222 
TABS,ioos:station:wmo:42051:1,2016-07-03T15:00:00Z,29.6350,-93.6417,2.0,19.6972,11111222 
TABS,ioos:station:wmo:42051:1,2016-07-03T15:30:00Z,29.6350,-93.6417,2.0,19.6773,11111222 
TABS,ioos:station:wmo:42051:1,2016-07-03T16:00:00Z,29.6350,-93.6417,2.0,19.7257,11111222 
TABS,ioos:station:wmo:42051:1,2016-07-03T16:30:00Z,29.6350,-93.6417,2.0,19.702,11111222 
TABS,ioos:station:wmo:42051:1,2016-07-03T17:00:00Z,29.6350,-93.6417,2.0,19.7363,11111222 
TABS,ioos:station:wmo:42051:1,2016-07-03T17:30:00Z,29.6350,-93.6417,2.0,19.7776,11111222 
TABS,ioos:station:wmo:42051:1,2016-07-03T18:00:00Z,29.6350,-93.6417,2.0,19.7598,11111222 
TABS,ioos:station:wmo:42051:1,2016-07-03T18:30:00Z,29.6350,-93.6417,2.0,19.8608,11111222 
TABS,ioos:station:wmo:42051:1,2016-07-03T19:00:00Z,29.6350,-93.6417,2.0,20.0036,11111222 
TABS,ioos:station:wmo:42051:1,2016-07-03T19:30:00Z,29.6350,-93.6417,2.0,20.0729,11111222 
TABS,ioos:station:wmo:42051:1,2016-07-03T20:00:00Z,29.6350,-93.6417,2.0,20.0533,11111222 
TABS,ioos:station:wmo:42051:1,2016-07-03T20:30:00Z,29.6350,-93.6417,2.0,20.0538,11111222 
TABS,ioos:station:wmo:42051:1,2016-07-03T21:00:00Z,29.6350,-93.6417,2.0,20.0354,11111222 
TABS,ioos:station:wmo:42051:1,2016-07-03T21:30:00Z,29.6350,-93.6417,2.0,19.9895,11111222 
TABS,ioos:station:wmo:42051:1,2016-07-03T22:00:00Z,29.6350,-93.6417,2.0,19.975,11111222 
TABS,ioos:station:wmo:42051:1,2016-07-03T22:30:00Z,29.6350,-93.6417,2.0,19.9484,11111222 
TABS,ioos:station:wmo:42051:1,2016-07-03T23:00:00Z,29.6350,-93.6417,2.0,20.0095,11111222 
TABS,ioos:station:wmo:42051:1,2016-07-03T23:30:00Z,29.6350,-93.6417,2.0,20.0889,11111222 
TABS,ioos:station:wmo:42051:1,2016-07-04T00:00:00Z,29.6350,-93.6417,2.0,20.158,11111222 
TABS,ioos:station:wmo:42051:1,2016-07-04T00:30:00Z,29.6350,-93.6417,2.0,20.206,11111222 
TABS,ioos:station:wmo:42051:1,2016-07-04T01:00:00Z,29.6350,-93.6417,2.0,20.3362,11111222 
TABS,ioos:station:wmo:42051:1,2016-07-04T01:30:00Z,29.6350,-93.6417,2.0,20.4219,11111222 
TABS,ioos:station:wmo:42051:1,2016-07-04T02:00:00Z,29.6350,-93.6417,2.0,20.4764,11111222 
TABS,ioos:station:wmo:42051:1,2016-07-04T02:30:00Z,29.6350,-93.6417,2.0,20.5403,11111222 
TABS,ioos:station:wmo:42051:1,2016-07-04T03:00:00Z,29.6350,-93.6417,2.0,20.628,11111222 
TABS,ioos:station:wmo:42051:1,2016-07-04T03:30:00Z,29.6350,-93.6417,2.0,20.8067,11111222 
TABS,ioos:station:wmo:42051:1,2016-07-04T04:00:00Z,29.6350,-93.6417,2.0,20.9966,11111222 
TABS,ioos:station:wmo:42051:1,2016-07-04T04:30:00Z,29.6350,-93.6417,2.0,21.4713,11111222 
TABS,ioos:station:wmo:42051:1,2016-07-04T05:00:00Z,29.6350,-93.6417,2.0,21.6524,11111222 
TABS,ioos:station:wmo:42051:1,2016-07-04T05:30:00Z,29.6350,-93.6417,2.0,21.9894,11111222 
TABS,ioos:station:wmo:42051:1,2016-07-04T06:00:00Z,29.6350,-93.6417,2.0,22.5621,11111222 
TABS,ioos:station:wmo:42051:1,2016-07-04T06:30:00Z,29.6350,-93.6417,2.0,22.9826,11111222 
TABS,ioos:station:wmo:42051:1,2016-07-04T07:00:00Z,29.6350,-93.6417,2.0,22.713,11111222 
TABS,ioos:station:wmo:42051:1,2016-07-04T07:30:00Z,29.6350,-93.6417,2.0,22.7564,11111222 
TABS,ioos:station:wmo:42051:1,2016-07-04T08:00:00Z,29.6350,-93.6417,2.0,22.6202,11111222 
TABS,ioos:station:wmo:42051:1,2016-07-04T08:30:00Z,29.6350,-93.6417,2.0,22.5292,11111222 
TABS,ioos:station:wmo:42051:1,2016-07-04T09:00:00Z,29.6350,-93.6417,2.0,22.2181,11111222 
TABS,ioos:station:wmo:42051:1,2016-07-04T09:30:00Z,29.6350,-93.6417,2.0,22.3336,11111222 
TABS,ioos:station:wmo:42051:1,2016-07-04T10:00:00Z,29.6350,-93.6417,2.0,22.192,11111222 
TABS,ioos:station:wmo:42051:1,2016-07-04T10:30:00Z,29.6350,-93.6417,2.0,21.7395,11111222 
TABS,ioos:station:wmo:42051:1,2016-07-04T11:00:00Z,29.6350,-93.6417,2.0,21.9025,11111222 
TABS,ioos:station:wmo:42051:1,2016-07-04T11:30:00Z,29.6350,-93.6417,2.0,21.7861,11111222 
TABS,ioos:station:wmo:42051:1,2016-07-04T12:00:00Z,29.6350,-93.6417,2.0,21.6225,11111222 
TABS,ioos:station:wmo:42051:1,2016-07-04T12:30:00Z,29.6350,-93.6417,2.0,21.6541,11111222 
TABS,ioos:station:wmo:42051:1,2016-07-04T13:00:00Z,29.6350,-93.6417,2.0,21.7938,11111222 
TABS,ioos:station:wmo:42051:1,2016-07-04T13:30:00Z,29.6350,-93.6417,2.0,21.8469,11111222 
TABS,ioos:station:wmo:42051:1,2016-07-04T14:00:00Z,29.6350,-93.6417,2.0,21.9988,11111222 
TABS,ioos:station:wmo:42051:1,2016-07-04T14:30:00Z,29.6350,-93.6417,2.0,22.1738,11111222 
TABS,ioos:station:wmo:42051:1,2016-07-04T15:00:00Z,29.6350,-93.6417,2.0,22.3811,11111222 
TABS,ioos:station:wmo:42051:1,2016-07-04T15:30:00Z,29.6350,-93.6417,2.0,22.6888,11111222 
TABS,ioos:station:wmo:42051:1,2016-07-04T16:00:00Z,29.6350,-93.6417,2.0,22.8009,11111222 
TABS,ioos:station:wmo:42051:1,2016-07-04T16:30:00Z,29.6350,-93.6417,2.0,22.6523,11111222 
TABS,ioos:station:wmo:42051:1,2016-07-04T17:00:00Z,29.6350,-93.6417,2.0,22.8231,11111222 
TABS,ioos:station:wmo:42051:1,2016-07-04T17:30:00Z,29.6350,-93.6417,2.0,22.7938,11111222 
TABS,ioos:station:wmo:42051:1,2016-07-04T18:00:00Z,29.6350,-93.6417,2.0,22.8828,11111222 
TABS,ioos:station:wmo:42051:1,2016-07-04T18:30:00Z,29.6350,-93.6417,2.0,22.9259,11111222 
TABS,ioos:station:wmo:42051:1,2016-07-04T19:00:00Z,29.6350,-93.6417,2.0,23.031,11111222 
TABS,ioos:station:wmo:42051:1,2016-07-04T19:30:00Z,29.6350,-93.6417,2.0,23.273,11111222 
TABS,ioos:station:wmo:42051:1,2016-07-04T20:00:00Z,29.6350,-93.6417,2.0,23.2548,11111222 
TABS,ioos:station:wmo:42051:1,2016-07-04T20:30:00Z,29.6350,-93.6417,2.0,23.3924,11111222 
TABS,ioos:station:wmo:42051:1,2016-07-04T21:00:00Z,29.6350,-93.6417,2.0,23.3837,11111222 
TABS,ioos:station:wmo:42051:1,2016-07-04T21:30:00Z,29.6350,-93.6417,2.0,23.3699,11111222 
TABS,ioos:station:wmo:42051:1,2016-07-04T22:00:00Z,29.6350,-93.6417,2.0,23.2108,11111222 
TABS,ioos:station:wmo:42051:1,2016-07-04T22:30:00Z,29.6350,-93.6417,2.0,22.6101,11111222 
TABS,ioos:station:wmo:42051:1,2016-07-04T23:00:00Z,29.6350,-93.6417,2.0,22.7632,11111222 
TABS,ioos:station:wmo:42051:1,2016-07-04T23:30:00Z,29.6350,-93.6417,2.0,22.8973,11111222 
TABS,ioos:station:wmo:42051:1,2016-07-05T00:00:00Z,29.6350,-93.6417,2.0,22.9971,11111222 
TABS,ioos:station:wmo:42051:1,2016-07-05T00:30:00Z,29.6350,-93.6417,2.0,23.0276,11111222 
TABS,ioos:station:wmo:42051:1,2016-07-05T01:00:00Z,29.6350,-93.6417,2.0,23.1694,11111222 
TABS,ioos:station:wmo:42051:1,2016-07-05T01:30:00Z,29.6350,-93.6417,2.0,23.2393,11111222 
TABS,ioos:station:wmo:42051:1,2016-07-05T02:00:00Z,29.6350,-93.6417,2.0,23.365,11111222 
TABS,ioos:station:wmo:42051:1,2016-07-05T02:30:00Z,29.6350,-93.6417,2.0,23.329,11111222 
TABS,ioos:station:wmo:42051:1,2016-07-05T03:00:00Z,29.6350,-93.6417,2.0,23.5373,11111222 
TABS,ioos:station:wmo:42051:1,2016-07-05T03:30:00Z,29.6350,-93.6417,2.0,23.6079,11111222 
TABS,ioos:station:wmo:42051:1,2016-07-05T04:00:00Z,29.6350,-93.6417,2.0,23.5841,11111222 
TABS,ioos:station:wmo:42051:1,2016-07-05T04:30:00Z,29.6350,-93.6417,2.0,23.6917,11111222 
TABS,ioos:station:wmo:42051:1,2016-07-05T05:00:00Z,29.6350,-93.6417,2.0,23.679,11111222 
TABS,ioos:station:wmo:42051:1,2016-07-05T05:30:00Z,29.6350,-93.6417,2.0,23.7737,11111222 
TABS,ioos:station:wmo:42051:1,2016-07-05T06:00:00Z,29.6350,-93.6417,2.0,23.7067,11111222 
TABS,ioos:station:wmo:42051:1,2016-07-05T06:30:00Z,29.6350,-93.6417,2.0,23.3866,11111222 
TABS,ioos:station:wmo:42051:1,2016-07-05T07:00:00Z,29.6350,-93.6417,2.0,22.999,11111222 
TABS,ioos:station:wmo:42051:1,2016-07-05T07:30:00Z,29.6350,-93.6417,2.0,23.6322,11111222 
TABS,ioos:station:wmo:42051:1,2016-07-05T08:00:00Z,29.6350,-93.6417,2.0,23.5481,11111222 
TABS,ioos:station:wmo:42051:1,2016-07-05T08:30:00Z,29.6350,-93.6417,2.0,23.4294,11111222 
TABS,ioos:station:wmo:42051:1,2016-07-05T09:00:00Z,29.6350,-93.6417,2.0,23.528,11111222 
TABS,ioos:station:wmo:42051:1,2016-07-05T09:30:00Z,29.6350,-93.6417,2.0,23.6837,11111222 
TABS,ioos:station:wmo:42051:1,2016-07-05T10:00:00Z,29.6350,-93.6417,2.0,23.9445,11111222 
TABS,ioos:station:wmo:42051:1,2016-07-05T10:30:00Z,29.6350,-93.6417,2.0,24.0223,11111222 
TABS,ioos:station:wmo:42051:1,2016-07-05T11:00:00Z,29.6350,-93.6417,2.0,23.974,11111222 
TABS,ioos:station:wmo:42051:1,2016-07-05T11:30:00Z,29.6350,-93.6417,2.0,23.8282,11111222 
TABS,ioos:station:wmo:42051:1,2016-07-05T12:00:00Z,29.6350,-93.6417,2.0,23.9772,11111222 
TABS,ioos:station:wmo:42051:1,2016-07-05T12:30:00Z,29.6350,-93.6417,2.0,24.0517,11111222 
TABS,ioos:station:wmo:42051:1,2016-07-05T13:00:00Z,29.6350,-93.6417,2.0,24.2374,11111222 
TABS,ioos:station:wmo:42051:1,2016-07-05T13:30:00Z,29.6350,-93.6417,2.0,24.2953,11111222 
TABS,ioos:station:wmo:42051:1,2016-07-05T14:00:00Z,29.6350,-93.6417,2.0,24.3424,11111222 
TABS,ioos:station:wmo:42051:1,2016-07-05T14:30:00Z,29.6350,-93.6417,2.0,24.2282,11111222 
TABS,ioos:station:wmo:42051:1,2016-07-05T15:00:00Z,29.6350,-93.6417,2.0,24.2725,11111222 
TABS,ioos:station:wmo:42051:1,2016-07-05T15:30:00Z,29.6350,-93.6417,2.0,24.268,11111222 
TABS,ioos:station:wmo:42051:1,2016-07-05T16:00:00Z,29.6350,-93.6417,2.0,24.3803,11111222 
TABS,ioos:station:wmo:42051:1,2016-07-05T16:30:00Z,29.6350,-93.6417,2.0,24.4727,11111222 
TABS,ioos:station:wmo:42051:1,2016-07-05T17:00:00Z,29.6350,-93.6417,2.0,24.6293,11111222 
TABS,ioos:station:wmo:42051:1,2016-07-05T17:30:00Z,29.6350,-93.6417,2.0,24.6967,11111222 
TABS,ioos:station:wmo:42051:1,2016-07-05T18:00:00Z,29.6350,-93.6417,2.0,24.759,11111222 
TABS,ioos:station:wmo:42051:1,2016-07-05T18:30:00Z,29.6350,-93.6417,2.0,25.1746,11111222 
TABS,ioos:station:wmo:42051:1,2016-07-05T19:00:00Z,29.6350,-93.6417,2.0,25.2819,11111222 
TABS,ioos:station:wmo:42051:1,2016-07-05T19:30:00Z,29.6350,-93.6417,2.0,25.3062,11111222 
TABS,ioos:station:wmo:42051:1,2016-07-05T20:00:00Z,29.6350,-93.6417,2.0,25.2929,11111222 
TABS,ioos:station:wmo:42051:1,2016-07-05T20:30:00Z,29.6350,-93.6417,2.0,25.1585,11111222 
TABS,ioos:station:wmo:42051:1,2016-07-05T21:00:00Z,29.6350,-93.6417,2.0,25.1626,11111222 
TABS,ioos:station:wmo:42051:1,2016-07-05T21:30:00Z,29.6350,-93.6417,2.0,25.07,11111222 
TABS,ioos:station:wmo:42051:1,2016-07-05T22:00:00Z,29.6350,-93.6417,2.0,25.1206,11111222 
TABS,ioos:station:wmo:42051:1,2016-07-05T22:30:00Z,29.6350,-93.6417,2.0,25.1803,11111222 
TABS,ioos:station:wmo:42051:1,2016-07-05T23:00:00Z,29.6350,-93.6417,2.0,25.1527,11111222 
TABS,ioos:station:wmo:42051:1,2016-07-05T23:30:00Z,29.6350,-93.6417,2.0,25.1769,11111222 
TABS,ioos:station:wmo:42051:1,2016-07-06T00:00:00Z,29.6350,-93.6417,2.0,25.2395,11111222 
TABS,ioos:station:wmo:42051:1,2016-07-06T00:30:00Z,29.6350,-93.6417,2.0,25.3416,11111222 
TABS,ioos:station:wmo:42051:1,2016-07-06T01:00:00Z,29.6350,-93.6417,2.0,25.4448,11111222 
TABS,ioos:station:wmo:42051:1,2016-07-06T01:30:00Z,29.6350,-93.6417,2.0,25.5671,11111222 
TABS,ioos:station:wmo:42051:1,2016-07-06T02:00:00Z,29.6350,-93.6417,2.0,25.5395,11111222 
TABS,ioos:station:wmo:42051:1,2016-07-06T02:30:00Z,29.6350,-93.6417,2.0,25.5119,11111222 
TABS,ioos:station:wmo:42051:1,2016-07-06T03:00:00Z,29.6350,-93.6417,2.0,25.3655,11111222 
TABS,ioos:station:wmo:42051:1,2016-07-06T03:30:00Z,29.6350,-93.6417,2.0,25.4691,11111222 
TABS,ioos:station:wmo:42051:1,2016-07-06T04:00:00Z,29.6350,-93.6417,2.0,25.6525,11111222 
TABS,ioos:station:wmo:42051:1,2016-07-06T04:30:00Z,29.6350,-93.6417,2.0,25.6022,11111222 
TABS,ioos:station:wmo:42051:1,2016-07-06T05:00:00Z,29.6350,-93.6417,2.0,25.7234,11111222 
TABS,ioos:station:wmo:42051:1,2016-07-06T05:30:00Z,29.6350,-93.6417,2.0,25.8333,11111222 
TABS,ioos:station:wmo:42051:1,2016-07-06T06:00:00Z,29.6350,-93.6417,2.0,25.8349,11111222 
TABS,ioos:station:wmo:42051:1,2016-07-06T06:30:00Z,29.6350,-93.6417,2.0,25.909,11111222 
TABS,ioos:station:wmo:42051:1,2016-07-06T07:00:00Z,29.6350,-93.6417,2.0,25.9725,11111222 
TABS,ioos:station:wmo:42051:1,2016-07-06T07:30:00Z,29.6350,-93.6417,2.0,25.9869,11111222 
TABS,ioos:station:wmo:42051:1,2016-07-06T08:00:00Z,29.6350,-93.6417,2.0,26.0521,11111222 
TABS,ioos:station:wmo:42051:1,2016-07-06T08:30:00Z,29.6350,-93.6417,2.0,26.0773,11111222 
TABS,ioos:station:wmo:42051:1,2016-07-06T09:00:00Z,29.6350,-93.6417,2.0,26.1251,11111222 
TABS,ioos:station:wmo:42051:1,2016-07-06T09:30:00Z,29.6350,-93.6417,2.0,26.1748,11111222 
TABS,ioos:station:wmo:42051:1,2016-07-06T10:00:00Z,29.6350,-93.6417,2.0,26.13,11111222 
TABS,ioos:station:wmo:42051:1,2016-07-06T10:30:00Z,29.6350,-93.6417,2.0,26.1192,11111222 
TABS,ioos:station:wmo:42051:1,2016-07-06T11:00:00Z,29.6350,-93.6417,2.0,26.1831,11111222 
TABS,ioos:station:wmo:42051:1,2016-07-06T11:30:00Z,29.6350,-93.6417,2.0,26.2154,11111222 
TABS,ioos:station:wmo:42051:1,2016-07-06T12:00:00Z,29.6350,-93.6417,2.0,26.0058,11111222 
TABS,ioos:station:wmo:42051:1,2016-07-06T12:30:00Z,29.6350,-93.6417,2.0,25.608,11111222 